• In Sweden
  • List of Countries
  • For 7 days
  • Water Temperature
  • Satellite Maps
  • Weather Map
  • Weather Widgets
  • user-avatar
    Login

    Hourly Weather Vorylevo

    Today, 26 September, Wednesday

    Time Temperature Precipitation Wind Pressure Humidity
    00:00 +3°C° 0 mm 4 mps 746 mmHg 82%
    01:00 +3°C° 0 mm 4 mps 747 mmHg 83%
    02:00 +2°C° 0 mm 3 mps 747 mmHg 85%
    03:00 +2°C° 0 mm 3 mps 748 mmHg 86%
    04:00 +1°C° 0 mm 3 mps 748 mmHg 87%
    05:00 +1°C° 0 mm 3 mps 749 mmHg 87%
    06:00 +1°C° 0 mm 4 mps 749 mmHg 83%
    07:00 +3°C° 0 mm 4 mps 749 mmHg 79%
    08:00 +4°C° 0 mm 4 mps 750 mmHg 74%
    09:00 +5°C° 0 mm 4 mps 749 mmHg 71%
    10:00 +7°C° 0 mm 5 mps 749 mmHg 68%
    11:00 +8°C° 0 mm 5 mps 749 mmHg 65%
    12:00 +9°C° 0 mm 5 mps 748 mmHg 63%
    13:00 +9°C° 0 mm 5 mps 748 mmHg 61%
    14:00 +10°C° 0 mm 6 mps 747 mmHg 59%
    15:00 +9°C° 0 mm 6 mps 747 mmHg 61%
    16:00 +8°C° 0 mm 5 mps 746 mmHg 63%
    17:00 +8°C° 0 mm 5 mps 745 mmHg 65%
    18:00 +7°C° 0.5 mm 6 mps 744 mmHg 70%
    19:00 +5°C° 0.5 mm 7 mps 743 mmHg 75%
    20:00 +5°C° 0.5 mm 8 mps 741 mmHg 79%
    21:00 +5°C° 1.3 mm 8 mps 740 mmHg 82%
    22:00 +5°C° 1.3 mm 9 mps 738 mmHg 84%
    23:00 +3°C° 1.3 mm 9 mps 737 mmHg 86%

    Tomorrow, 27 September, Thursday

    Time Temperature Precipitation Wind Pressure Humidity
    00:00 +3°C° 1.2 mm 9 mps 736 mmHg 87%
    01:00 +5°C° 1.2 mm 8 mps 734 mmHg 87%
    02:00 +5°C° 1.2 mm 8 mps 733 mmHg 88%
    03:00 +5°C° 0.9 mm 8 mps 732 mmHg 87%
    04:00 +6°C° 0.9 mm 7 mps 732 mmHg 87%
    05:00 +7°C° 0.9 mm 6 mps 732 mmHg 87%
    06:00 +7°C° 0.1 mm 6 mps 732 mmHg 84%
    07:00 +6°C° 0.1 mm 7 mps 732 mmHg 81%
    08:00 +6°C° 0.1 mm 7 mps 733 mmHg 78%
    09:00 +6°C° 0.2 mm 7 mps 733 mmHg 74%
    10:00 +7°C° 0.2 mm 8 mps 733 mmHg 70%
    11:00 +7°C° 0.2 mm 8 mps 733 mmHg 67%
    12:00 +7°C° 0.2 mm 8 mps 734 mmHg 65%
    13:00 +7°C° 0.2 mm 8 mps 734 mmHg 63%
    14:00 +7°C° 0.2 mm 8 mps 735 mmHg 61%
    15:00 +8°C° 0.1 mm 7 mps 735 mmHg 63%
    16:00 +7°C° 0.1 mm 6 mps 735 mmHg 65%
    17:00 +5°C° 0.1 mm 6 mps 736 mmHg 67%
    18:00 +6°C° 0 mm 5 mps 736 mmHg 69%
    19:00 +6°C° 0 mm 5 mps 737 mmHg 70%
    20:00 +5°C° 0 mm 5 mps 737 mmHg 72%
    21:00 +5°C° 0 mm 5 mps 737 mmHg 72%
    22:00 +5°C° 0 mm 5 mps 738 mmHg 73%
    23:00 +5°C° 0 mm 5 mps 738 mmHg 74%

    Day after tomorrow, 28 September, Friday

    Time Temperature Precipitation Wind Pressure Humidity
    00:00 +3°C° 0 mm 5 mps 738 mmHg 76%
    01:00 +3°C° 0 mm 5 mps 738 mmHg 78%
    02:00 +3°C° 0 mm 5 mps 738 mmHg 81%
    03:00 +4°C° 0.7 mm 4 mps 737 mmHg 84%
    04:00 +4°C° 0.7 mm 4 mps 736 mmHg 86%
    05:00 +4°C° 0.7 mm 4 mps 736 mmHg 89%
    06:00 +4°C° 1.9 mm 4 mps 735 mmHg 91%
    07:00 +5°C° 1.9 mm 4 mps 733 mmHg 92%
    08:00 +5°C° 1.9 mm 4 mps 732 mmHg 94%
    09:00 +6°C° 1.3 mm 4 mps 732 mmHg 93%
    10:00 +8°C° 1.3 mm 4 mps 731 mmHg 92%
    11:00 +10°C° 1.3 mm 4 mps 731 mmHg 91%
    12:00 +9°C° 0.9 mm 5 mps 730 mmHg 89%
    13:00 +9°C° 0.9 mm 5 mps 730 mmHg 86%
    14:00 +10°C° 0.9 mm 5 mps 730 mmHg 84%
    15:00 +8°C° 0.8 mm 6 mps 731 mmHg 85%
    16:00 +7°C° 0.8 mm 6 mps 732 mmHg 85%
    17:00 +5°C° 0.8 mm 7 mps 733 mmHg 86%
    18:00 +4°C° 0.1 mm 7 mps 735 mmHg 85%
    19:00 +4°C° 0.1 mm 6 mps 736 mmHg 84%
    20:00 +3°C° 0.1 mm 6 mps 738 mmHg 83%
    21:00 +2°C° 0 mm 6 mps 739 mmHg 84%
    22:00 +1°C° 0 mm 5 mps 740 mmHg 84%
    23:00 +1°C° 0 mm 5 mps 740 mmHg 85%

    29 September, Saturday

    Time Temperature Precipitation Wind Pressure Humidity
    00:00 0°C° 0 mm 5 mps 741 mmHg 84%
    01:00 0°C° 0 mm 5 mps 742 mmHg 84%
    02:00 -1°C° 0 mm 4 mps 743 mmHg 83%
    03:00 -1°C° 0 mm 4 mps 743 mmHg 83%
    04:00 -1°C° 0 mm 4 mps 744 mmHg 82%
    05:00 -2°C° 0 mm 4 mps 744 mmHg 82%
    06:00 -1°C° 0 mm 5 mps 745 mmHg 79%
    07:00 -1°C° 0 mm 5 mps 745 mmHg 76%
    08:00 0°C° 0 mm 5 mps 746 mmHg 74%
    09:00 +1°C° 0 mm 5 mps 746 mmHg 70%
    10:00 +2°C° 0 mm 5 mps 747 mmHg 65%
    11:00 +5°C° 0 mm 5 mps 748 mmHg 61%
    12:00 +5°C° 0 mm 5 mps 748 mmHg 60%
    13:00 +5°C° 0 mm 5 mps 748 mmHg 58%
    14:00 +5°C° 0 mm 5 mps 749 mmHg 56%
    15:00 +4°C° 0 mm 4 mps 749 mmHg 60%
    16:00 +4°C° 0 mm 3 mps 749 mmHg 64%
    17:00 +3°C° 0 mm 3 mps 750 mmHg 69%
    18:00 +2°C° 0 mm 3 mps 750 mmHg 71%
    19:00 +1°C° 0 mm 3 mps 751 mmHg 73%
    20:00 +1°C° 0 mm 3 mps 751 mmHg 76%
    21:00 +1°C° 0 mm 2 mps 751 mmHg 77%
    22:00 -1°C° 0 mm 2 mps 752 mmHg 78%
    23:00 -1°C° 0 mm 2 mps 752 mmHg 79%

    30 September, Sunday

    Time Temperature Precipitation Wind Pressure Humidity
    00:00 -1°C° 0 mm 2 mps 752 mmHg 79%
    01:00 -1°C° 0 mm 2 mps 752 mmHg 79%
    02:00 -2°C° 0 mm 2 mps 752 mmHg 79%
    03:00 -1°C° 0 mm 2 mps 752 mmHg 79%
    04:00 -1°C° 0 mm 2 mps 752 mmHg 79%
    05:00 -1°C° 0 mm 2 mps 752 mmHg 79%
    06:00 0°C° 0 mm 3 mps 752 mmHg 76%
    07:00 +2°C° 0 mm 3 mps 752 mmHg 74%
    08:00 +3°C° 0 mm 4 mps 752 mmHg 71%
    09:00 +4°C° 0 mm 4 mps 752 mmHg 68%
    10:00 +6°C° 0 mm 5 mps 751 mmHg 65%
    11:00 +7°C° 0 mm 5 mps 751 mmHg 63%
    12:00 +7°C° 0 mm 5 mps 751 mmHg 62%
    13:00 +8°C° 0 mm 5 mps 750 mmHg 61%
    14:00 +8°C° 0 mm 5 mps 750 mmHg 61%
    15:00 +7°C° 0.2 mm 5 mps 749 mmHg 67%
    16:00 +6°C° 0.2 mm 5 mps 749 mmHg 73%
    17:00 +6°C° 0.2 mm 4 mps 748 mmHg 79%
    18:00 +6°C° 0.2 mm 5 mps 748 mmHg 81%
    19:00 +6°C° 0.2 mm 5 mps 748 mmHg 83%
    20:00 +6°C° 0.2 mm 5 mps 748 mmHg 85%
    21:00 +6°C° 0 mm 5 mps 748 mmHg 85%
    22:00 +6°C° 0 mm 5 mps 748 mmHg 86%
    23:00 +5°C° 0 mm 5 mps 748 mmHg 86%

    1 October, Monday

    Time Temperature Precipitation Wind Pressure Humidity
    00:00 +5°C° 0 mm 5 mps 748 mmHg 87%
    01:00 +5°C° 0 mm 4 mps 748 mmHg 88%
    02:00 +5°C° 0 mm 4 mps 748 mmHg 89%
    03:00 +5°C° 0 mm 4 mps 748 mmHg 90%
    04:00 +5°C° 0 mm 4 mps 748 mmHg 91%
    05:00 +5°C° 0 mm 4 mps 748 mmHg 92%
    06:00 +5°C° 0 mm 4 mps 748 mmHg 90%
    07:00 +6°C° 0 mm 4 mps 748 mmHg 87%
    08:00 +6°C° 0 mm 4 mps 749 mmHg 85%
    09:00 +7°C° 0 mm 4 mps 749 mmHg 83%
    10:00 +7°C° 0 mm 4 mps 749 mmHg 81%
    11:00 +8°C° 0 mm 4 mps 749 mmHg 78%
    12:00 +10°C° 0 mm 4 mps 749 mmHg 75%
    13:00 +10°C° 0 mm 5 mps 749 mmHg 71%
    14:00 +12°C° 0 mm 5 mps 749 mmHg 67%
    15:00 +11°C° 0 mm 4 mps 749 mmHg 71%
    16:00 +10°C° 0 mm 3 mps 749 mmHg 75%
    17:00 +9°C° 0 mm 3 mps 749 mmHg 79%
    18:00 +8°C° 0 mm 3 mps 749 mmHg 80%
    19:00 +7°C° 0 mm 3 mps 749 mmHg 81%
    20:00 +7°C° 0 mm 3 mps 749 mmHg 82%
    21:00 +5°C° 0 mm 3 mps 750 mmHg 84%
    22:00 +6°C° 0 mm 2 mps 750 mmHg 85%
    23:00 +5°C° 0 mm 2 mps 750 mmHg 86%
    Show more